Skip Page Navigation
NASA JPL Caltech
NASA Logo - Jet Propulsion Laboratory + View the NASA Portal
+ Center for Near-Earth Object Studies
JPL Home Earth Solar System Stars & Galaxies Technology
JPL Solar System Dynamics
BODIES ORBITS EPHEMERIDES TOOLS PHYSICAL DATA DISCOVERY FAQ SITE MAP

Significant website upgrade scheduled for September 27. More details available here.

JPL Small-Body Database Browser
Search: [ help ]  
67593 (2000 SK138)
Classification: Main-belt Asteroid          SPK-ID: 2067593
Ephemeris | Orbit Diagram | Orbital Elements | Mission Design | Physical Parameters | Discovery Circumstances ]

[ show orbit diagram ]
Orbital Elements at Epoch 2459396.5 (2021-Jul-01.0) TDB
Reference: JPL 27 (heliocentric ecliptic J2000)
 Element Value Uncertainty (1-sigma)   Units 
e .1314844477132448 4.0049e-08  
a 2.656236829545096 1.3754e-08 au
q 2.306982997016779 1.0358e-07 au
i 10.8104315941593 4.3564e-06 deg
node 261.5211006619074 2.2933e-05 deg
peri 298.3295760738387 2.822e-05 deg
M 106.6363641305438 1.6032e-05 deg
tp 2458928.116652522915
(2020-Mar-19.61665252)
7.0477e-05 TDB
period 1581.243007172762
4.33
1.2282e-05
3.363e-08
d
yr
n .2276689910197133 1.7684e-09 deg/d
Q 3.005490662073413 1.5563e-08 au
  Orbit Determination Parameters
   # obs. used (total)      1027  
   data-arc span      9035 days (24.74 yr)  
   first obs. used      1996-11-10  
   last obs. used      2021-08-06  
   planetary ephem.      DE441  
   SB-pert. ephem.      SB441-N16  
   condition code      0  
   norm. resid. RMS      .50274  
   source      ORB  
   producer      Otto Matic  
   solution date      2021-Aug-25 01:35:50  

Additional Information
 Earth MOID = 1.32592 au 
 Jupiter MOID = 2.06941 au 
 T_jup = 3.350 
[ hide covariance matrix ]
Orbital Elements at Epoch 2457426.5 (2016-Feb-08.0) TDB
Reference: JPL 27 (heliocentric ecliptic J2000)
 Element Value Uncertainty (1-sigma)   Units 
e .1314808471437649 3.9988e-08  
q 2.30465401659339 1.0337e-07 au
tp 2457345.681173544024
(2015-Nov-19.18117354)
7.1729e-05 TDB
node 261.5841217502876 2.2906e-05 deg
peri 297.4914206940039 2.824e-05 deg
i 10.8205604056728 4.3598e-06 deg
  Orbit Determination Parameters
   # obs. used (total)      1027  
   data-arc span      9035 days (24.74 yr)  
   first obs. used      1996-11-10  
   last obs. used      2021-08-06  
   planetary ephem.      DE441  
   SB-pert. ephem.      SB441-N16  
   condition code      0  
   norm. resid. RMS      .50274  
   source      ORB  
   producer      Otto Matic  
   solution date      2021-Aug-25 01:35:50  

Additional Information
 Jupiter MOID = 2.06941 au 
 T_jup = 3.350 
Orbit Covariance (6×6)
  e q tp node peri i
e 1.599024108278277E-15 -4.108597499029647E-15 -1.443785061496626E-13 -7.452460838022503E-15 -3.006007006635471E-14 2.874719606169893E-16
q -4.108597499029647E-15 1.06848228442465E-14 2.359334994452224E-13 1.954245334032772E-14 4.65985363629949E-14 -5.7755511340266E-16
tp -1.443785061496626E-13 2.359334994452224E-13 5.145075486674616E-9 -2.955981320981281E-12 1.204726404290653E-9 -2.912937615082114E-13
node -7.452460838022503E-15 1.954245334032772E-14 -2.955981320981281E-12 5.246880752262979E-10 -5.157098782249542E-10 4.708103615219816E-12
peri -3.006007006635471E-14 4.65985363629949E-14 1.204726404290653E-9 -5.157098782249542E-10 7.97485393230994E-10 -4.668077880154128E-12
i 2.874719606169893E-16 -5.7755511340266E-16 -2.912937615082114E-13 4.708103615219816E-12 -4.668077880154128E-12 1.90075300192374E-11

Ephemeris | Orbit Diagram | Orbital Elements | Mission Design | Physical Parameters | Discovery Circumstances ]

Physical Parameter Table
Parameter Symbol Value Units Sigma Reference Notes
absolute magnitude H 14.79   n/a MPO636982  
diameter diameter 3.152 km 0.999 urn:nasa:pds:neowise_diameters_albedos::2.0[mainbelt] (http://adsabs.harvard.edu/abs/2011ApJ...741...68M)  
geometric albedo albedo 0.214   0.179 urn:nasa:pds:neowise_diameters_albedos::2.0[mainbelt] (http://adsabs.harvard.edu/abs/2011ApJ...741...68M)  

67593 (2000 SK138)          Discovered 2000-Sep-23 by LINEAR at Socorro
Reference: 20030910/Numbers.arcLast Updated: 2004-04-19
Ephemeris | Orbit Diagram | Orbital Elements | Mission Design | Physical Parameters | Discovery Circumstances ]
ABOUT SSD CREDITS/AWARDS PRIVACY/COPYRIGHT GLOSSARY LINKS
FirstGov 2021-Sep-18 20:58 UT
(server date/time)  
NASA Home Page
Site Manager:   Ryan S. Park
Webmaster  Alan B. Chamberlin